Find Starlink 11571

NORAD ID: 62986 Int'l Des: 2025-031 Owner: SPXS Country: US Constellation: starlink operational
LEOCIRCULAR

現在のビュー

3D地球を読み込み中...

About Starlink 11571

Starlink 11571 (NORAD 62986) is a starlink constellation satellite (v2 mini d2c) launched Feb 11, 2025 by SPXS of US. It operates in LEO, CIRCULAR orbit with a mass of 960.00 kg.

Starlink 11571について

説明を読み込み中...

次回通過

Passes for default location (London). Set your location on the main map for personalized predictions.

高度履歴

Loading altitude history...

軌道要素

1 62986U 25031F 26190.74753008 .00178209 00000-0 13587-2 0 9997
2 62986 42.9993 345.3139 0001877 265.9109 94.1544 15.70911228 81947
Epoch: Jul 9, 2026 • Age: 24 hours

現在のステータス

高度 355.1 km
遠地点 / 近地点 N/A
速度 7.70 km/s
衛星直下点 0.24°N, 33.36°W
打ち上げ日 Feb 11, 2025
運用期間 1.4 years
タイプ internet

技術仕様

分類 Payload
質量 960.00 kg
乾燥質量 910.00 kg
総質量 960.00 kg
長さ 0.30 m
直径 4.10 m
スパン 29.00 m
形状 Box + pan
製造者 SPXS
バスタイプ Starlink V2MD
フェーズステータス In Orbit
所有者/国 SPXS/US

Most Searched